• Em Portugal
  • Lista de países
  • Para 7 dias
  • Temperatura da água
  • Mapas de satélite
  • Mapa do tempo
  • Widgets de tempo
  • user-avatar
    Iniciar Sessão

    Previsão horária em La Condamine

    Hoje, 23 Junho, Sábado

    Tempo Temperatura Precipitação Vento Pressão Humidade
    00:00 +23°C° 0 mm 2 m/s 746 mmHg 83%
    01:00 +21°C° 0,1 mm 3 m/s 746 mmHg 83%
    02:00 +21°C° 0,1 mm 3 m/s 746 mmHg 83%
    03:00 +21°C° 0,1 mm 4 m/s 746 mmHg 82%
    04:00 +21°C° 0 mm 4 m/s 746 mmHg 81%
    05:00 +21°C° 0 mm 5 m/s 747 mmHg 80%
    06:00 +22°C° 0 mm 5 m/s 747 mmHg 79%
    07:00 +23°C° 0,1 mm 5 m/s 747 mmHg 72%
    08:00 +25°C° 0,1 mm 5 m/s 748 mmHg 66%
    09:00 +26°C° 0,1 mm 5 m/s 748 mmHg 59%
    10:00 +27°C° 0,1 mm 5 m/s 748 mmHg 58%
    11:00 +27°C° 0,1 mm 5 m/s 748 mmHg 57%
    12:00 +27°C° 0,1 mm 5 m/s 748 mmHg 56%
    13:00 +27°C° 0,1 mm 4 m/s 748 mmHg 57%
    14:00 +27°C° 0,1 mm 4 m/s 747 mmHg 57%
    15:00 +27°C° 0,1 mm 3 m/s 747 mmHg 58%
    16:00 +26°C° 0 mm 3 m/s 747 mmHg 61%
    17:00 +26°C° 0 mm 2 m/s 747 mmHg 65%
    18:00 +25°C° 0 mm 1 m/s 747 mmHg 68%
    19:00 +24°C° 0 mm 1 m/s 747 mmHg 73%
    20:00 +22°C° 0 mm 1 m/s 747 mmHg 77%
    21:00 +21°C° 0 mm 1 m/s 747 mmHg 82%
    22:00 +21°C° 0 mm 1 m/s 747 mmHg 81%
    23:00 +21°C° 0 mm 1 m/s 747 mmHg 81%

    Amanhã, 24 Junho, Domingo

    Tempo Temperatura Precipitação Vento Pressão Humidade
    00:00 +20°C° 0 mm 2 m/s 747 mmHg 81%
    01:00 +20°C° 0 mm 2 m/s 747 mmHg 80%
    02:00 +20°C° 0 mm 2 m/s 747 mmHg 80%
    03:00 +20°C° 0 mm 2 m/s 747 mmHg 80%
    04:00 +20°C° 0,1 mm 2 m/s 747 mmHg 79%
    05:00 +21°C° 0,1 mm 2 m/s 747 mmHg 77%
    06:00 +21°C° 0,1 mm 3 m/s 747 mmHg 76%
    07:00 +22°C° 0,2 mm 3 m/s 747 mmHg 72%
    08:00 +24°C° 0,2 mm 3 m/s 747 mmHg 68%
    09:00 +24°C° 0,2 mm 3 m/s 747 mmHg 64%
    10:00 +25°C° 0,4 mm 3 m/s 747 mmHg 65%
    11:00 +25°C° 0,4 mm 3 m/s 746 mmHg 65%
    12:00 +25°C° 0,4 mm 3 m/s 746 mmHg 66%
    13:00 +24°C° 0,8 mm 3 m/s 746 mmHg 69%
    14:00 +24°C° 0,8 mm 3 m/s 746 mmHg 72%
    15:00 +23°C° 0,8 mm 2 m/s 745 mmHg 75%
    16:00 +23°C° 0,6 mm 2 m/s 745 mmHg 78%
    17:00 +23°C° 0,6 mm 2 m/s 745 mmHg 80%
    18:00 +21°C° 0,6 mm 2 m/s 745 mmHg 82%
    19:00 +20°C° 0,2 mm 2 m/s 745 mmHg 83%
    20:00 +19°C° 0,2 mm 2 m/s 745 mmHg 85%
    21:00 +20°C° 0,2 mm 1 m/s 746 mmHg 86%
    22:00 +18°C° 0 mm 2 m/s 746 mmHg 85%
    23:00 +18°C° 0 mm 2 m/s 746 mmHg 84%

    Depois de amanhã, 25 Junho, Segunda-feira

    Tempo Temperatura Precipitação Vento Pressão Humidade
    00:00 +18°C° 0 mm 2 m/s 746 mmHg 84%
    01:00 +18°C° 0 mm 2 m/s 746 mmHg 82%
    02:00 +17°C° 0 mm 2 m/s 746 mmHg 80%
    03:00 +17°C° 0 mm 2 m/s 745 mmHg 78%
    04:00 +19°C° 0 mm 2 m/s 746 mmHg 74%
    05:00 +20°C° 0 mm 2 m/s 746 mmHg 70%
    06:00 +21°C° 0 mm 2 m/s 746 mmHg 67%
    07:00 +24°C° 0 mm 2 m/s 746 mmHg 61%
    08:00 +26°C° 0 mm 2 m/s 746 mmHg 55%
    09:00 +28°C° 0 mm 2 m/s 746 mmHg 49%
    10:00 +28°C° 0 mm 2 m/s 746 mmHg 50%
    11:00 +28°C° 0 mm 3 m/s 746 mmHg 52%
    12:00 +28°C° 0 mm 3 m/s 746 mmHg 54%
    13:00 +27°C° 0,1 mm 2 m/s 746 mmHg 56%
    14:00 +27°C° 0,1 mm 2 m/s 746 mmHg 59%
    15:00 +27°C° 0,1 mm 2 m/s 746 mmHg 62%
    16:00 +26°C° 0,1 mm 1 m/s 746 mmHg 65%
    17:00 +26°C° 0,1 mm 1 m/s 746 mmHg 69%
    18:00 +25°C° 0,1 mm 1 m/s 746 mmHg 72%
    19:00 +24°C° 0 mm 1 m/s 747 mmHg 75%
    20:00 +23°C° 0 mm 1 m/s 747 mmHg 78%
    21:00 +21°C° 0 mm 1 m/s 747 mmHg 81%
    22:00 +20°C° 0 mm 2 m/s 748 mmHg 80%
    23:00 +20°C° 0 mm 2 m/s 748 mmHg 79%

    26 Junho, Terça-feira

    Tempo Temperatura Precipitação Vento Pressão Humidade
    00:00 +19°C° 0 mm 2 m/s 748 mmHg 79%
    01:00 +19°C° 0 mm 2 m/s 748 mmHg 76%
    02:00 +19°C° 0 mm 3 m/s 747 mmHg 74%
    03:00 +19°C° 0 mm 3 m/s 747 mmHg 71%
    04:00 +20°C° 0 mm 3 m/s 747 mmHg 68%
    05:00 +21°C° 0 mm 3 m/s 748 mmHg 65%
    06:00 +23°C° 0 mm 2 m/s 748 mmHg 61%
    07:00 +25°C° 0 mm 3 m/s 748 mmHg 58%
    08:00 +26°C° 0 mm 3 m/s 748 mmHg 55%
    09:00 +28°C° 0 mm 3 m/s 748 mmHg 52%
    10:00 +28°C° 0 mm 3 m/s 748 mmHg 54%
    11:00 +28°C° 0 mm 3 m/s 748 mmHg 56%
    12:00 +28°C° 0 mm 3 m/s 748 mmHg 58%
    13:00 +27°C° 0,1 mm 3 m/s 748 mmHg 61%
    14:00 +27°C° 0,1 mm 2 m/s 748 mmHg 63%
    15:00 +27°C° 0,1 mm 2 m/s 748 mmHg 65%
    16:00 +26°C° 0,1 mm 2 m/s 748 mmHg 69%
    17:00 +26°C° 0,1 mm 1 m/s 748 mmHg 72%
    18:00 +25°C° 0,1 mm 1 m/s 748 mmHg 75%
    19:00 +24°C° 0 mm 1 m/s 748 mmHg 78%
    20:00 +23°C° 0 mm 1 m/s 748 mmHg 81%
    21:00 +22°C° 0 mm 1 m/s 749 mmHg 85%
    22:00 +21°C° 0 mm 2 m/s 749 mmHg 84%
    23:00 +21°C° 0 mm 2 m/s 749 mmHg 83%

    27 Junho, Quarta-feira

    Tempo Temperatura Precipitação Vento Pressão Humidade
    00:00 +21°C° 0 mm 2 m/s 749 mmHg 82%
    01:00 +20°C° 0 mm 2 m/s 749 mmHg 82%
    02:00 +20°C° 0 mm 2 m/s 749 mmHg 81%
    03:00 +20°C° 0 mm 2 m/s 748 mmHg 80%
    04:00 +21°C° 0 mm 2 m/s 748 mmHg 76%
    05:00 +23°C° 0 mm 2 m/s 748 mmHg 71%
    06:00 +24°C° 0 mm 2 m/s 748 mmHg 67%
    07:00 +26°C° 0 mm 2 m/s 748 mmHg 61%
    08:00 +28°C° 0 mm 2 m/s 748 mmHg 54%
    09:00 +30°C° 0 mm 2 m/s 748 mmHg 48%
    10:00 +30°C° 0 mm 2 m/s 748 mmHg 49%
    11:00 +30°C° 0 mm 2 m/s 748 mmHg 50%
    12:00 +30°C° 0 mm 2 m/s 748 mmHg 52%
    13:00 +30°C° 0,1 mm 2 m/s 747 mmHg 52%
    14:00 +30°C° 0,1 mm 2 m/s 747 mmHg 53%
    15:00 +30°C° 0,1 mm 2 m/s 747 mmHg 53%
    16:00 +29°C° 0 mm 2 m/s 747 mmHg 57%
    17:00 +28°C° 0 mm 2 m/s 747 mmHg 62%
    18:00 +27°C° 0 mm 2 m/s 747 mmHg 66%
    19:00 +26°C° 0 mm 2 m/s 747 mmHg 70%
    20:00 +24°C° 0 mm 2 m/s 747 mmHg 75%
    21:00 +23°C° 0 mm 2 m/s 747 mmHg 79%
    22:00 +21°C° 0 mm 2 m/s 747 mmHg 76%
    23:00 +21°C° 0 mm 2 m/s 747 mmHg 73%

    28 Junho, Quinta-feira

    Tempo Temperatura Precipitação Vento Pressão Humidade
    00:00 +22°C° 0 mm 1 m/s 747 mmHg 69%
    01:00 +21°C° 0 mm 2 m/s 747 mmHg 67%
    02:00 +21°C° 0 mm 2 m/s 747 mmHg 65%
    03:00 +20°C° 0 mm 2 m/s 747 mmHg 63%
    04:00 +23°C° 0 mm 2 m/s 746 mmHg 62%
    05:00 +24°C° 0 mm 2 m/s 746 mmHg 60%
    06:00 +25°C° 0 mm 1 m/s 746 mmHg 59%
    07:00 +27°C° 0 mm 2 m/s 746 mmHg 57%
    08:00 +28°C° 0 mm 2 m/s 745 mmHg 55%
    09:00 +30°C° 0 mm 2 m/s 745 mmHg 53%
    10:00 +29°C° 0,2 mm 2 m/s 745 mmHg 56%
    11:00 +29°C° 0,2 mm 2 m/s 745 mmHg 59%
    12:00 +29°C° 0,2 mm 3 m/s 745 mmHg 62%
    13:00 +29°C° 0,6 mm 3 m/s 744 mmHg 61%
    14:00 +30°C° 0,6 mm 3 m/s 744 mmHg 60%
    15:00 +30°C° 0,6 mm 4 m/s 744 mmHg 59%
    16:00 +29°C° 0,5 mm 3 m/s 743 mmHg 62%
    17:00 +28°C° 0,5 mm 3 m/s 743 mmHg 66%
    18:00 +27°C° 0,5 mm 3 m/s 743 mmHg 70%
    19:00 +26°C° 0,1 mm 3 m/s 743 mmHg 73%
    20:00 +24°C° 0,1 mm 3 m/s 743 mmHg 77%
    21:00 +22°C° 0,1 mm 3 m/s 744 mmHg 81%
    22:00 +21°C° 0,3 mm 2 m/s 744 mmHg 81%
    23:00 +21°C° 0,3 mm 2 m/s 743 mmHg 81%
    Mostrar mais